Location: Alpha Ridge Park
(39.3209°N, 76.9128°W)
Time: 00:00:26
(UTC-04:00)

Vanguard 2 Rocket - Pass Details

Date: 28 May 2019
Orbit: 555 x 3326 km, 32.9° (Epoch: 25 June)

Event Time Altitude Azimuth Distance (km) Brightness Sun altitude
Rises 04:40:43 0° 228° (SW) 7,119 - -11.1°
Reaches altitude 10° 04:45:35 10° 224° (SW) 6,225 - -10.3°
Exits shadow 04:45:56 11° 223° (SW) 6,163 10.4 -10.3°
Maximum altitude 05:04:39 51° 156° (SSE) 3,638 9.9 -7.4°
Drops below altitude 10° 05:19:30 10° 87° (E) 4,988 11.8 -5.0°
Sets 05:22:53 0° 83° (E) 5,678 12.3 -4.5°
